Home > Weather > Ann Arbor > Past weeks

Flag for U.S.A. Weather for the Past 2 Weeks in Ann Arbor, Michigan, U.S.A.

Now
35 °F

Partly sunny.


Feels Like: 29 °F
Forecast: 22 / 37 °F
Wind: 8 mph from Southwest

Location: Ann Arbor Municipal Airport

Current Time: Feb 6, 2016 at 6:52:38 PM

Latest Report: Feb 6, 2016 at 5:53 PM


Visibility: 10 mi

Pressure: 30.19 "Hg

Humidity: 61%

Dew point: 23 °F

Location of Ann ArborLocation

Historic Weather in Ann Arbor — Graph

°F

Ann Arbor Temperature Yesterday

Maximum temperature yesterday: 38 °F (at 2:53 PM)
Minimum temperature yesterday: 17 °F (at 2:53 AM)
Average temperature yesterday: 27 °F

High & Low Weather Summary for the Past Weeks

 TemperatureHumidityPressure
High54 °F (Feb 3, 3:53 AM)100% (Jan 30, 10:53 PM)30.38 "Hg (Jan 30, 10:53 PM)
Low12 °F (Jan 24, 1:53 AM)46% (Jan 22, 4:53 PM)29.45 "Hg (Feb 3, 4:53 AM)
Average32 °F77%29.96 "Hg
* Reported Jan 22 4:53 PM — Feb 6 4:53 PM, Ann Arbor, Weather by CustomWeather, © 2016

Note: Actual official high and low records may vary slightly from our data, if they occured in-between our weather recording intervals... More about our weather records

Advertising

Ann Arbor Weather History for the Previous 24 Hours

 ConditionsComfort  
Time TempWeatherWind HumidityBarometerVisibility
4:53 PM
Sat, Feb 6
36 °FSunny.9 mph59%30.19 "Hg10 mi
3:53 PM37 °FPartly sunny.15 mph57%30.19 "Hg10 mi
2:53 PM38 °FSunny.14 mph53%30.19 "Hg10 mi
1:53 PM37 °FSunny.13 mph52%30.21 "Hg10 mi
12:53 PM37 °FPartly sunny.16 mph50%30.24 "Hg10 mi
11:53 AM34 °FSunny.16 mph54%30.27 "Hg10 mi
10:53 AM32 °FScattered clouds.8 mph66%30.28 "Hg9 mi
9:53 AM29 °FSunny.9 mph82%30.30 "Hg7 mi
8:53 AM25 °FIce fog.7 mph88%30.31 "Hg6 mi
7:53 AM22 °FPartly sunny.3 mph89%30.30 "Hg7 mi
6:53 AM19 °FClear.3 mph88%30.30 "Hg9 mi
5:53 AM21 °FClear.3 mph92%30.30 "Hg10 mi
4:53 AM21 °FClear.5 mph88%30.29 "Hg10 mi
3:53 AM23 °FPassing clouds.5 mph85%30.29 "Hg10 mi
2:53 AM23 °FClear.6 mph85%30.29 "Hg10 mi
1:53 AM25 °FClear.8 mph81%30.29 "Hg10 mi
12:53 AM27 °FPassing clouds.10 mph75%30.29 "Hg10 mi
11:53 PM
Fri, Feb 5
30 °FMostly cloudy.10 mph82%30.29 "Hg9 mi
10:53 PM31 °FMostly cloudy.7 mph82%30.29 "Hg10 mi
9:53 PM31 °FMostly cloudy.6 mph82%30.30 "Hg10 mi
8:53 PM29 °FPassing clouds.5 mph89%30.32 "Hg10 mi
7:53 PM32 °FPassing clouds.7 mph82%30.33 "Hg10 mi
6:53 PM34 °FLight snow. Mostly cloudy.15 mph73%30.33 "Hg8 mi
Weather by CustomWeather, © 2016

See weather overviewHow to use our weather pages